DataTemp.
Ø
Temp.
Max
Temp.
Min
UmiditàPressionePioggiaVento
Ø
Vento
dir. Ø
Vento
Max
Rad. solare
Ø
Rad. solare
Max
Indice UV
Max
11.04.2024 00:008.2°C8.2°C8.2°C91.0%1027.0hPa0.0mm1.4km/hWNW3.2km/h0.0W/m²0W/m²
11.04.2024 00:058.2°C8.2°C8.2°C90.8%1027.0hPa0.0mm0.3km/hWSW3.2km/h0.0W/m²0W/m²
11.04.2024 00:108.2°C8.2°C8.2°C90.5%1027.0hPa0.0mm1.4km/hSSE3.2km/h0.0W/m²0W/m²
11.04.2024 00:158.2°C8.2°C8.2°C90.7%1027.0hPa0.0mm1.1km/hS3.2km/h0.0W/m²0W/m²
11.04.2024 00:208.1°C8.2°C8.1°C91.0%1027.1hPa0.0mm0.0km/hS1.4km/h0.0W/m²0W/m²
11.04.2024 00:258.1°C8.1°C8.1°C91.0%1027.2hPa0.0mm0.0km/hS1.4km/h0.0W/m²0W/m²
11.04.2024 00:308.1°C8.1°C8.1°C91.0%1027.2hPa0.0mm0.0km/hS1.4km/h0.0W/m²0W/m²
11.04.2024 00:358.1°C8.2°C8.1°C91.0%1027.1hPa0.0mm0.0km/hS3.2km/h0.0W/m²0W/m²
11.04.2024 00:408.2°C8.2°C8.1°C91.0%1027.1hPa0.0mm0.8km/hSSW3.2km/h0.0W/m²0W/m²
11.04.2024 00:458.2°C8.2°C8.1°C91.0%1027.1hPa0.0mm1.4km/hSSW3.2km/h0.0W/m²0W/m²
11.04.2024 00:508.1°C8.1°C8.1°C91.0%1027.2hPa0.0mm1.4km/hSW3.2km/h0.0W/m²0W/m²
11.04.2024 00:558.1°C8.1°C8.1°C91.0%1027.2hPa0.0mm1.4km/hSW3.2km/h0.0W/m²0W/m²
11.04.2024 01:008.1°C8.1°C8.1°C91.0%1027.2hPa0.0mm1.4km/hS4.7km/h0.0W/m²0W/m²
11.04.2024 01:058.1°C8.1°C8.0°C91.0%1027.3hPa0.0mm1.4km/hW3.2km/h0.0W/m²0W/m²
11.04.2024 01:108.0°C8.0°C7.9°C91.0%1027.3hPa0.0mm0.9km/hW1.4km/h0.0W/m²0W/m²
11.04.2024 01:157.9°C8.0°C7.9°C91.0%1027.3hPa0.0mm0.0km/hW3.2km/h0.0W/m²0W/m²
11.04.2024 01:207.9°C8.0°C7.9°C91.0%1027.3hPa0.0mm0.8km/hSW3.2km/h0.0W/m²0W/m²
11.04.2024 01:257.9°C7.9°C7.9°C91.0%1027.4hPa0.0mm1.4km/hSSW1.4km/h0.0W/m²0W/m²
11.04.2024 01:307.9°C7.9°C7.8°C91.0%1027.4hPa0.0mm0.3km/hSSW1.4km/h0.0W/m²0W/m²
11.04.2024 01:357.8°C7.9°C7.8°C91.0%1027.6hPa0.0mm0.0km/hSSW1.4km/h0.0W/m²0W/m²
11.04.2024 01:407.9°C7.9°C7.8°C91.0%1027.6hPa0.0mm0.3km/hSSW4.7km/h0.0W/m²0W/m²
11.04.2024 01:457.8°C7.9°C7.8°C91.0%1027.6hPa0.0mm1.8km/hSSW4.7km/h0.0W/m²0W/m²
11.04.2024 01:507.8°C7.8°C7.8°C91.0%1027.7hPa0.0mm3.2km/hSSW3.2km/h0.0W/m²0W/m²
11.04.2024 01:557.7°C7.8°C7.7°C91.0%1027.7hPa0.0mm1.5km/hSW1.4km/h0.0W/m²0W/m²
11.04.2024 02:007.7°C7.7°C7.7°C91.0%1027.7hPa0.0mm1.2km/hSW1.4km/h0.0W/m²0W/m²
11.04.2024 02:057.7°C7.7°C7.7°C91.0%1027.7hPa0.0mm0.0km/hSW0.0km/h0.0W/m²0W/m²
11.04.2024 02:107.7°C7.7°C7.6°C91.0%1027.7hPa0.0mm0.0km/hSW1.4km/h0.0W/m²0W/m²
11.04.2024 02:157.6°C7.7°C7.6°C91.0%1027.7hPa0.0mm0.0km/hSW3.2km/h0.0W/m²0W/m²
11.04.2024 02:207.6°C7.7°C7.6°C91.6%1027.7hPa0.0mm0.5km/hWSW3.2km/h0.0W/m²0W/m²
11.04.2024 02:257.6°C7.6°C7.5°C91.0%1027.6hPa0.0mm1.4km/hS3.2km/h0.0W/m²0W/m²
11.04.2024 02:307.5°C7.6°C7.5°C91.3%1027.6hPa0.0mm1.4km/hSSW3.2km/h0.0W/m²0W/m²
11.04.2024 02:357.5°C7.6°C7.4°C91.8%1027.6hPa0.0mm0.9km/hWSW1.4km/h0.0W/m²0W/m²
11.04.2024 02:407.5°C7.6°C7.5°C92.0%1027.5hPa0.0mm0.0km/hW3.2km/h0.0W/m²0W/m²
11.04.2024 02:457.5°C7.6°C7.5°C91.8%1027.5hPa0.0mm1.2km/hW4.7km/h0.0W/m²0W/m²
11.04.2024 02:507.5°C7.5°C7.4°C91.0%1027.5hPa0.0mm1.4km/hSW3.2km/h0.0W/m²0W/m²
11.04.2024 02:557.4°C7.4°C7.4°C91.0%1027.5hPa0.0mm1.4km/hWSW3.2km/h0.0W/m²0W/m²
11.04.2024 03:007.3°C7.4°C7.3°C91.0%1027.6hPa0.0mm1.4km/hWSW4.7km/h0.0W/m²0W/m²
11.04.2024 03:057.3°C7.3°C7.3°C91.0%1027.6hPa0.0mm1.4km/hW4.7km/h0.0W/m²0W/m²
11.04.2024 03:107.3°C7.3°C7.2°C91.0%1027.5hPa0.0mm1.4km/hW4.7km/h0.0W/m²0W/m²
11.04.2024 03:157.3°C7.3°C7.2°C91.6%1027.5hPa0.0mm1.4km/hWNW1.4km/h0.0W/m²0W/m²
11.04.2024 03:207.2°C7.3°C7.2°C92.0%1027.5hPa0.0mm0.6km/hWNW3.2km/h0.0W/m²0W/m²
11.04.2024 03:257.2°C7.2°C7.2°C92.0%1027.5hPa0.0mm1.1km/hW4.7km/h0.0W/m²0W/m²
11.04.2024 03:307.2°C7.2°C7.2°C91.5%1027.5hPa0.0mm1.4km/hSSW4.7km/h0.0W/m²0W/m²
11.04.2024 03:357.2°C7.2°C7.1°C91.4%1027.6hPa0.0mm1.4km/hSSW4.7km/h0.0W/m²0W/m²
11.04.2024 03:407.1°C7.2°C7.1°C91.4%1027.5hPa0.0mm1.4km/hWSW6.5km/h0.0W/m²0W/m²
11.04.2024 03:457.2°C7.2°C7.1°C92.0%1027.6hPa0.0mm1.9km/hW6.5km/h0.0W/m²0W/m²
11.04.2024 03:507.3°C7.3°C7.2°C92.0%1027.5hPa0.0mm3.2km/hW4.7km/h0.0W/m²0W/m²
11.04.2024 03:557.3°C7.3°C7.3°C91.8%1027.5hPa0.0mm2.9km/hW3.2km/h0.0W/m²0W/m²
11.04.2024 04:007.3°C7.3°C7.3°C91.0%1027.6hPa0.0mm1.4km/hW3.2km/h0.0W/m²0W/m²
11.04.2024 04:057.3°C7.3°C7.3°C91.0%1027.6hPa0.0mm1.4km/hSSW4.7km/h0.0W/m²0W/m²
11.04.2024 04:107.3°C7.3°C7.2°C91.0%1027.7hPa0.0mm1.4km/hSW3.2km/h0.0W/m²0W/m²
11.04.2024 04:157.2°C7.2°C7.1°C91.0%1027.6hPa0.0mm1.4km/hSSW4.7km/h0.0W/m²0W/m²
11.04.2024 04:207.1°C7.2°C7.0°C91.0%1027.7hPa0.0mm3.2km/hSSW6.5km/h0.0W/m²0W/m²
11.04.2024 04:257.0°C7.0°C6.9°C91.0%1027.6hPa0.0mm2.9km/hSSW3.2km/h0.0W/m²0W/m²
11.04.2024 04:307.0°C7.1°C7.0°C91.0%1027.7hPa0.0mm1.4km/hWSW4.7km/h0.0W/m²0W/m²
11.04.2024 04:357.0°C7.0°C6.9°C91.0%1027.7hPa0.0mm1.4km/hSSW4.7km/h0.0W/m²0W/m²
11.04.2024 04:406.9°C6.9°C6.8°C91.0%1027.7hPa0.0mm1.4km/hSSW3.2km/h0.0W/m²0W/m²
11.04.2024 04:456.8°C6.9°C6.8°C91.0%1027.7hPa0.0mm1.4km/hSSW1.4km/h0.0W/m²0W/m²
11.04.2024 04:506.7°C6.8°C6.7°C91.0%1027.8hPa0.0mm0.3km/hSSW3.2km/h0.0W/m²0W/m²
11.04.2024 04:556.7°C6.7°C6.6°C91.0%1027.9hPa0.0mm0.3km/hSSW3.2km/h0.0W/m²0W/m²
11.04.2024 05:006.6°C6.7°C6.6°C91.0%1028.0hPa0.0mm1.4km/hSSW3.2km/h0.0W/m²0W/m²
11.04.2024 05:056.6°C6.6°C6.6°C91.0%1028.0hPa0.0mm1.4km/hSW3.2km/h0.0W/m²0W/m²
11.04.2024 05:106.6°C6.6°C6.6°C91.0%1028.0hPa0.0mm1.4km/hW4.7km/h0.0W/m²0W/m²
11.04.2024 05:156.5°C6.6°C6.4°C91.0%1028.1hPa0.0mm1.4km/hSSW3.2km/h0.0W/m²0W/m²
11.04.2024 05:206.4°C6.5°C6.4°C91.0%1028.1hPa0.0mm1.4km/hSSW3.2km/h0.0W/m²0W/m²
11.04.2024 05:256.4°C6.4°C6.4°C91.0%1028.2hPa0.0mm1.4km/hW4.7km/h0.0W/m²0W/m²
11.04.2024 05:306.4°C6.4°C6.4°C91.0%1028.2hPa0.0mm0.5km/hWSW1.4km/h0.0W/m²0W/m²
11.04.2024 05:356.4°C6.4°C6.4°C91.0%1028.2hPa0.0mm0.0km/hWSW1.4km/h0.0W/m²0W/m²
11.04.2024 05:406.4°C6.4°C6.4°C91.4%1028.2hPa0.0mm0.0km/hWNW3.2km/h0.0W/m²0W/m²
11.04.2024 05:456.4°C6.4°C6.4°C91.0%1028.2hPa0.0mm0.9km/hSW3.2km/h0.0W/m²0W/m²
11.04.2024 05:506.3°C6.4°C6.3°C91.0%1028.2hPa0.0mm1.4km/hSW3.2km/h0.0W/m²0W/m²
11.04.2024 05:556.3°C6.3°C6.2°C91.0%1028.3hPa0.0mm1.4km/hW3.2km/h0.0W/m²0W/m²
11.04.2024 06:006.2°C6.3°C6.1°C91.0%1028.3hPa0.0mm1.4km/hSW3.2km/h0.0W/m²0W/m²
11.04.2024 06:056.2°C6.2°C6.1°C91.3%1028.3hPa0.0mm1.4km/hWSW1.4km/h0.0W/m²0W/m²
11.04.2024 06:106.2°C6.2°C6.1°C92.0%1028.4hPa0.0mm1.4km/hW3.2km/h0.0W/m²0W/m²
11.04.2024 06:156.2°C6.2°C6.1°C91.8%1028.4hPa0.0mm1.4km/hW3.2km/h0.0W/m²0W/m²
11.04.2024 06:206.2°C6.2°C6.1°C92.0%1028.5hPa0.0mm1.4km/hW4.7km/h0.0W/m²0W/m²
11.04.2024 06:256.2°C6.3°C6.2°C92.0%1028.5hPa0.0mm1.4km/hW3.2km/h0.0W/m²0W/m²
11.04.2024 06:306.3°C6.3°C6.2°C92.0%1028.5hPa0.0mm1.4km/hSSW3.2km/h0.0W/m²0W/m²
11.04.2024 06:356.2°C6.2°C6.2°C92.0%1028.6hPa0.0mm1.4km/hW4.7km/h0.0W/m²0W/m²
11.04.2024 06:406.2°C6.2°C6.1°C92.0%1028.8hPa0.0mm1.4km/hWSW4.7km/h4.5W/m²7W/m²
11.04.2024 06:456.2°C6.2°C6.2°C92.0%1028.8hPa0.0mm1.4km/hW4.7km/h7.7W/m²9W/m²
11.04.2024 06:506.2°C6.2°C6.2°C92.0%1028.8hPa0.0mm1.4km/hW4.7km/h10.8W/m²12W/m²
11.04.2024 06:556.3°C6.3°C6.2°C92.0%1028.8hPa0.0mm1.4km/hW3.2km/h13.7W/m²16W/m²
11.04.2024 07:006.3°C6.4°C6.3°C92.0%1028.8hPa0.0mm1.4km/hW3.2km/h17.5W/m²19W/m²
11.04.2024 07:056.3°C6.4°C6.3°C92.0%1028.9hPa0.0mm0.0km/hW3.2km/h20.2W/m²21W/m²
11.04.2024 07:106.3°C6.4°C6.3°C92.0%1029.0hPa0.0mm1.1km/hW4.7km/h24.0W/m²25W/m²
11.04.2024 07:156.3°C6.4°C6.3°C91.7%1029.1hPa0.0mm1.4km/hSSW3.2km/h27.7W/m²30W/m²
11.04.2024 07:206.4°C6.4°C6.3°C91.4%1029.1hPa0.0mm1.4km/hW3.2km/h31.7W/m²33W/m²
11.04.2024 07:256.4°C6.5°C6.4°C92.0%1029.2hPa0.0mm1.4km/hSSW3.2km/h35.3W/m²37W/m²
11.04.2024 07:306.5°C6.5°C6.4°C92.0%1029.3hPa0.0mm1.4km/hSW3.2km/h39.0W/m²40W/m²
11.04.2024 07:356.6°C6.6°C6.5°C92.0%1029.3hPa0.0mm1.4km/hSW3.2km/h42.3W/m²44W/m²
11.04.2024 07:406.7°C6.7°C6.6°C92.0%1029.3hPa0.0mm1.4km/hSSW3.2km/h45.8W/m²47W/m²
11.04.2024 07:456.7°C6.8°C6.7°C91.8%1029.4hPa0.0mm1.4km/hWSW3.2km/h48.7W/m²51W/m²
11.04.2024 07:506.8°C6.9°C6.8°C91.9%1029.5hPa0.0mm1.1km/hWNW1.4km/h52.7W/m²54W/m²
11.04.2024 07:556.9°C7.0°C6.9°C91.3%1029.6hPa0.0mm0.6km/hW4.7km/h56.7W/m²58W/m²
11.04.2024 08:007.0°C7.1°C6.9°C91.0%1029.7hPa0.0mm1.9km/hW4.7km/h61.5W/m²63W/m²
11.04.2024 08:057.2°C7.2°C7.1°C91.0%1029.7hPa0.0mm2.5km/hW4.7km/h65.0W/m²67W/m²
11.04.2024 08:107.3°C7.3°C7.2°C91.0%1029.7hPa0.0mm1.4km/hW4.7km/h69.0W/m²70W/m²
11.04.2024 08:157.3°C7.4°C7.3°C91.0%1029.8hPa0.0mm1.8km/hWSW4.7km/h73.8W/m²77W/m²
11.04.2024 08:207.5°C7.6°C7.4°C90.4%1029.8hPa0.0mm3.2km/hWSW3.2km/h80.7W/m²83W/m²
11.04.2024 08:257.6°C7.7°C7.6°C90.0%1029.9hPa0.0mm3.2km/hW6.5km/h84.7W/m²86W/m²
11.04.2024 08:307.8°C7.8°C7.7°C90.0%1029.9hPa0.0mm3.2km/hW3.2km/h152.0W/m²202W/m²
11.04.2024 08:357.9°C8.1°C7.8°C89.9%1029.9hPa0.0mm1.4km/hW4.7km/h210.3W/m²218W/m²
11.04.2024 08:408.2°C8.3°C8.1°C89.0%1029.9hPa0.0mm1.4km/hW4.7km/h226.2W/m²236W/m²
11.04.2024 08:458.4°C8.5°C8.3°C88.7%1029.9hPa0.0mm1.4km/hW4.7km/h244.0W/m²251W/m²
11.04.2024 08:508.6°C8.7°C8.5°C87.9%1029.8hPa0.0mm1.4km/hW4.7km/h257.8W/m²264W/m²
11.04.2024 08:558.8°C8.9°C8.7°C87.0%1029.8hPa0.0mm3.2km/hW4.7km/h271.5W/m²278W/m²
11.04.2024 09:009.0°C9.1°C8.9°C86.3%1029.7hPa0.0mm2.6km/hWNW6.5km/h288.8W/m²295W/m²
11.04.2024 09:059.2°C9.4°C9.1°C85.4%1029.7hPa0.0mm1.4km/hW3.2km/h305.8W/m²313W/m²
11.04.2024 09:109.6°C9.7°C9.4°C84.5%1029.7hPa0.0mm1.4km/hW6.5km/h326.8W/m²339W/m²
11.04.2024 09:159.8°C9.8°C9.7°C83.2%1029.7hPa0.0mm1.4km/hWNW4.7km/h346.3W/m²350W/m²
11.04.2024 09:209.9°C10.1°C9.8°C82.6%1029.7hPa0.0mm1.4km/hW4.7km/h349.8W/m²353W/m²
11.04.2024 09:2510.2°C10.2°C10.1°C81.3%1029.7hPa0.0mm2.1km/hW6.5km/h346.3W/m²348W/m²
11.04.2024 09:3010.3°C10.4°C10.3°C80.2%1029.7hPa0.0mm3.2km/hW6.5km/h345.8W/m²355W/m²
11.04.2024 09:3510.5°C10.6°C10.3°C79.9%1029.7hPa0.0mm3.2km/hW4.7km/h373.2W/m²404W/m²
11.04.2024 09:4010.8°C10.9°C10.7°C78.4%1029.7hPa0.0mm3.2km/hW6.5km/h414.2W/m²424W/m²
11.04.2024 09:4511.0°C11.1°C10.9°C75.7%1029.8hPa0.0mm3.2km/hW9.7km/h432.0W/m²436W/m²
11.04.2024 09:5011.2°C11.4°C11.1°C74.3%1029.7hPa0.0mm3.2km/hSW7.9km/h439.8W/m²443W/m²
11.04.2024 09:5511.4°C11.5°C11.3°C73.7%1029.7hPa0.0mm3.5km/hSSW11.2km/h452.7W/m²459W/m²
11.04.2024 10:0011.5°C11.6°C11.4°C72.5%1029.7hPa0.0mm4.7km/hSSW9.7km/h464.6W/m²468W/m²
11.04.2024 10:0511.8°C12.1°C11.6°C73.0%1029.7hPa0.0mm5.0km/hSW7.9km/h474.2W/m²478W/m²
11.04.2024 10:1012.3°C12.5°C12.2°C71.2%1029.7hPa0.0mm4.0km/hN4.7km/h482.7W/m²487W/m²
11.04.2024 10:1512.5°C12.6°C12.4°C69.6%1029.8hPa0.0mm3.2km/hW9.7km/h482.3W/m²492W/m²
11.04.2024 10:2012.8°C13.0°C12.6°C69.7%1029.7hPa0.0mm3.2km/hWSW4.7km/h500.3W/m²517W/m²
11.04.2024 10:2513.3°C13.4°C13.0°C68.8%1029.7hPa0.0mm2.9km/hW9.7km/h508.7W/m²517W/m²
11.04.2024 10:3013.2°C13.3°C13.1°C67.3%1029.7hPa0.0mm1.8km/hW6.5km/h518.0W/m²533W/m²
11.04.2024 10:3513.1°C13.2°C13.1°C67.8%1029.8hPa0.0mm3.2km/hW7.9km/h438.2W/m²524W/m²
11.04.2024 10:4013.2°C13.3°C13.1°C67.0%1029.7hPa0.0mm3.2km/hW11.2km/h552.8W/m²573W/m²
11.04.2024 10:4513.5°C13.7°C13.3°C66.3%1029.7hPa0.0mm3.2km/hW9.7km/h572.2W/m²577W/m²
11.04.2024 10:5013.8°C14.0°C13.7°C66.0%1029.6hPa0.0mm3.2km/hN6.5km/h582.8W/m²585W/m²
11.04.2024 10:5514.2°C14.3°C14.0°C65.7%1029.6hPa0.0mm3.2km/hW6.5km/h588.8W/m²592W/m²
11.04.2024 11:0014.3°C14.4°C14.3°C64.4%1029.7hPa0.0mm3.2km/hW11.2km/h597.7W/m²601W/m²
11.04.2024 11:0514.4°C14.6°C14.3°C63.7%1029.5hPa0.0mm3.8km/hW9.7km/h607.3W/m²612W/m²
11.04.2024 11:1014.7°C14.8°C14.6°C62.5%1029.6hPa0.0mm4.1km/hW11.2km/h616.2W/m²619W/m²
11.04.2024 11:1514.9°C15.1°C14.7°C61.2%1029.6hPa0.0mm3.2km/hW7.9km/h621.8W/m²626W/m²
11.04.2024 11:2015.2°C15.3°C15.1°C60.8%1029.6hPa0.0mm2.8km/hW9.7km/h629.7W/m²633W/m²
11.04.2024 11:2515.2°C15.3°C15.1°C60.0%1029.6hPa0.0mm3.2km/hW9.7km/h637.8W/m²640W/m²
11.04.2024 11:3015.3°C15.4°C15.2°C60.9%1029.5hPa0.0mm3.2km/hW9.7km/h645.2W/m²649W/m²
11.04.2024 11:3515.6°C15.7°C15.5°C60.2%1029.5hPa0.0mm3.2km/hNNW9.7km/h651.5W/m²656W/m²
11.04.2024 11:4015.8°C15.9°C15.7°C60.2%1029.6hPa0.0mm3.2km/hWSW6.5km/h657.0W/m²659W/m²
11.04.2024 11:4515.9°C16.0°C15.8°C59.3%1029.6hPa0.0mm3.2km/hW6.5km/h665.0W/m²668W/m²
11.04.2024 11:5016.0°C16.1°C15.9°C58.3%1029.5hPa0.0mm3.2km/hW6.5km/h671.5W/m²675W/m²
11.04.2024 11:5516.0°C16.2°C15.9°C58.7%1029.5hPa0.0mm3.2km/hW6.5km/h678.5W/m²682W/m²
11.04.2024 12:0016.2°C16.3°C16.1°C59.2%1029.4hPa0.0mm3.2km/hW9.7km/h686.0W/m²687W/m²
11.04.2024 12:0516.1°C16.2°C15.9°C59.2%1029.3hPa0.0mm3.2km/hWSW6.5km/h691.2W/m²694W/m²
11.04.2024 12:1016.1°C16.4°C15.8°C59.0%1029.2hPa0.0mm1.8km/hW6.5km/h693.5W/m²694W/m²
11.04.2024 12:1516.5°C16.7°C16.3°C59.0%1029.2hPa0.0mm1.4km/hNW4.7km/h698.8W/m²700W/m²
11.04.2024 12:2016.7°C16.8°C16.6°C57.3%1029.2hPa0.0mm1.4km/hNNW6.5km/h702.7W/m²705W/m²
11.04.2024 12:2517.0°C17.1°C16.8°C56.8%1029.1hPa0.0mm1.4km/hN4.7km/h706.0W/m²707W/m²
11.04.2024 12:3017.1°C17.1°C17.0°C56.6%1029.1hPa0.0mm1.4km/hNNE4.7km/h708.0W/m²710W/m²
11.04.2024 12:3517.1°C17.3°C16.9°C58.8%1029.0hPa0.0mm1.4km/hW6.5km/h711.3W/m²714W/m²
11.04.2024 12:4017.3°C17.4°C17.2°C58.5%1028.9hPa0.0mm1.4km/hSSW6.5km/h714.5W/m²715W/m²
11.04.2024 12:4517.5°C17.6°C17.3°C57.3%1029.0hPa0.0mm1.8km/hS4.7km/h716.2W/m²717W/m²
11.04.2024 12:5017.5°C17.6°C17.4°C55.7%1028.9hPa0.0mm2.8km/hW6.5km/h717.3W/m²719W/m²
11.04.2024 12:5517.6°C17.7°C17.4°C56.9%1028.8hPa0.0mm2.6km/hSSW6.5km/h719.0W/m²721W/m²
11.04.2024 13:0017.9°C18.1°C17.7°C56.2%1028.7hPa0.0mm1.9km/hW4.7km/h721.7W/m²722W/m²
11.04.2024 13:0518.1°C18.2°C18.0°C57.1%1028.7hPa0.0mm1.4km/hSW6.5km/h721.3W/m²722W/m²
11.04.2024 13:1018.2°C18.3°C18.1°C56.4%1028.7hPa0.0mm2.5km/hS7.9km/h723.5W/m²726W/m²
11.04.2024 13:1518.4°C18.7°C18.1°C56.6%1028.6hPa0.0mm3.2km/hW4.7km/h722.2W/m²724W/m²
11.04.2024 13:2018.7°C18.8°C18.6°C55.1%1028.5hPa0.0mm3.2km/hW9.7km/h723.6W/m²724W/m²
11.04.2024 13:2519.0°C19.1°C18.9°C55.5%1028.4hPa0.0mm3.2km/hSSW7.9km/h722.3W/m²724W/m²
11.04.2024 13:3018.9°C19.1°C18.8°C55.1%1028.2hPa0.0mm3.2km/hSSW11.2km/h721.3W/m²722W/m²
11.04.2024 13:3518.9°C19.2°C18.8°C55.6%1028.2hPa0.0mm4.7km/hSSW7.9km/h720.0W/m²721W/m²
11.04.2024 13:4019.2°C19.3°C19.1°C54.6%1028.1hPa0.0mm4.4km/hNNE6.5km/h718.3W/m²721W/m²
11.04.2024 13:4519.5°C19.6°C19.3°C53.5%1028.0hPa0.0mm3.2km/hW11.2km/h715.0W/m²717W/m²
11.04.2024 13:5019.5°C19.6°C19.4°C51.2%1027.9hPa0.0mm3.2km/hSSW7.9km/h712.8W/m²714W/m²
11.04.2024 13:5519.6°C19.6°C19.6°C50.1%1027.9hPa0.0mm4.6km/hSSW9.7km/h709.0W/m²710W/m²
11.04.2024 14:0019.6°C19.7°C19.5°C51.0%1027.8hPa0.0mm4.7km/hSSW9.7km/h707.0W/m²708W/m²
11.04.2024 14:0519.8°C19.9°C19.7°C50.8%1027.8hPa0.0mm4.7km/hNNE4.7km/h702.7W/m²705W/m²
11.04.2024 14:1020.0°C20.0°C19.9°C51.0%1027.8hPa0.0mm3.5km/hN4.7km/h698.3W/m²700W/m²
11.04.2024 14:1520.1°C20.4°C19.9°C50.3%1027.7hPa0.0mm2.1km/hNE6.5km/h693.7W/m²694W/m²
11.04.2024 14:2020.2°C20.3°C20.1°C49.5%1027.7hPa0.0mm1.4km/hSSW4.7km/h690.3W/m²691W/m²
11.04.2024 14:2520.1°C20.2°C20.1°C50.0%1027.7hPa0.0mm1.4km/hESE3.2km/h685.3W/m²689W/m²
11.04.2024 14:3020.3°C20.4°C20.2°C49.9%1027.7hPa0.0mm1.4km/hNNE6.5km/h678.6W/m²680W/m²
11.04.2024 14:3520.5°C20.6°C20.3°C51.2%1027.6hPa0.0mm2.8km/hNNE4.7km/h672.3W/m²675W/m²
11.04.2024 14:4020.7°C20.7°C20.6°C52.2%1027.6hPa0.0mm3.2km/hNNE9.7km/h667.3W/m²670W/m²
11.04.2024 14:4520.7°C20.8°C20.6°C49.9%1027.5hPa0.0mm3.2km/hNNE6.5km/h662.2W/m²664W/m²
11.04.2024 14:5020.8°C20.9°C20.7°C52.0%1027.4hPa0.0mm1.8km/hESE3.2km/h656.0W/m²657W/m²
11.04.2024 14:5520.9°C20.9°C20.8°C50.3%1027.2hPa0.0mm1.4km/hSE9.7km/h649.8W/m²654W/m²
11.04.2024 15:0020.8°C20.8°C20.7°C50.4%1027.2hPa0.0mm2.4km/hESE6.5km/h641.1W/m²645W/m²
11.04.2024 15:0521.1°C21.2°C20.8°C50.4%1027.1hPa0.0mm2.5km/hE4.7km/h632.2W/m²635W/m²
11.04.2024 15:1021.2°C21.3°C21.2°C49.0%1027.0hPa0.0mm1.4km/hE4.7km/h625.3W/m²628W/m²
11.04.2024 15:1521.3°C21.4°C21.1°C48.5%1027.0hPa0.0mm1.4km/hESE6.5km/h618.0W/m²621W/m²
11.04.2024 15:2021.4°C21.5°C21.3°C50.0%1026.9hPa0.0mm1.4km/hN3.2km/h609.8W/m²613W/m²
11.04.2024 15:2521.5°C21.6°C21.3°C46.5%1026.8hPa0.0mm1.4km/hNNE3.2km/h598.5W/m²603W/m²
11.04.2024 15:3021.5°C21.7°C21.3°C48.2%1026.8hPa0.0mm1.4km/hSE4.7km/h588.2W/m²592W/m²
11.04.2024 15:3521.6°C21.7°C21.4°C48.2%1026.8hPa0.0mm1.4km/hSE6.5km/h579.0W/m²584W/m²
11.04.2024 15:4021.4°C21.5°C21.3°C47.6%1026.8hPa0.0mm1.4km/hSE6.5km/h568.6W/m²571W/m²
11.04.2024 15:4521.7°C21.7°C21.5°C49.6%1026.7hPa0.0mm1.4km/hESE4.7km/h559.3W/m²564W/m²
11.04.2024 15:5021.6°C21.7°C21.5°C45.8%1026.7hPa0.0mm1.4km/hESE6.5km/h548.0W/m²552W/m²
11.04.2024 15:5521.7°C21.7°C21.7°C46.0%1026.7hPa0.0mm1.4km/hSE4.7km/h539.8W/m²543W/m²
11.04.2024 16:0021.7°C21.8°C21.6°C46.2%1026.7hPa0.0mm1.4km/hENE4.7km/h528.7W/m²533W/m²
11.04.2024 16:0521.7°C22.0°C21.6°C47.6%1026.7hPa0.0mm2.2km/hN3.2km/h516.7W/m²522W/m²
11.04.2024 16:1022.1°C22.1°C22.0°C46.0%1026.6hPa0.0mm1.4km/hNNE4.7km/h504.0W/m²508W/m²
11.04.2024 16:1522.0°C22.1°C21.9°C46.4%1026.6hPa0.0mm1.4km/hESE4.7km/h494.0W/m²499W/m²
11.04.2024 16:2022.1°C22.4°C21.9°C46.3%1026.6hPa0.0mm1.4km/hSE3.2km/h480.5W/m²487W/m²
11.04.2024 16:2522.5°C22.6°C22.4°C45.3%1026.5hPa0.0mm1.4km/hNNE4.7km/h467.3W/m²473W/m²
11.04.2024 16:3022.3°C22.4°C22.2°C44.7%1026.4hPa0.0mm1.4km/hSE4.7km/h456.3W/m²461W/m²
11.04.2024 16:3522.4°C22.6°C22.3°C45.6%1026.4hPa0.0mm1.4km/hENE4.7km/h444.5W/m²448W/m²
11.04.2024 16:4022.4°C22.6°C22.3°C44.3%1026.4hPa0.0mm1.4km/hN3.2km/h433.0W/m²438W/m²
11.04.2024 16:4522.6°C22.7°C22.4°C43.9%1026.3hPa0.0mm1.4km/hSSE6.5km/h422.0W/m²425W/m²
11.04.2024 16:5022.7°C22.8°C22.5°C46.0%1026.3hPa0.0mm1.4km/hESE6.5km/h377.3W/m²410W/m²
11.04.2024 16:5522.4°C22.6°C22.3°C45.1%1026.3hPa0.0mm1.4km/hESE4.7km/h334.5W/m²345W/m²
11.04.2024 17:0022.4°C22.5°C22.3°C46.2%1026.2hPa0.0mm1.4km/hESE3.2km/h332.8W/m²346W/m²
11.04.2024 17:0522.5°C22.7°C22.4°C46.2%1026.2hPa0.0mm1.4km/hSE3.2km/h373.2W/m²374W/m²
11.04.2024 17:1022.7°C22.8°C22.6°C45.7%1026.2hPa0.0mm1.4km/hSSE4.7km/h366.5W/m²371W/m²
11.04.2024 17:1522.6°C22.6°C22.5°C45.1%1026.2hPa0.0mm1.4km/hSE6.5km/h354.8W/m²360W/m²
11.04.2024 17:2022.7°C22.8°C22.5°C46.2%1026.0hPa0.0mm1.4km/hESE3.2km/h337.2W/m²343W/m²
11.04.2024 17:2522.7°C22.8°C22.7°C45.7%1026.0hPa0.0mm1.4km/hSE6.5km/h325.0W/m²330W/m²
11.04.2024 17:3022.7°C22.8°C22.6°C46.3%1026.0hPa0.0mm1.4km/hSE4.7km/h312.0W/m²318W/m²
11.04.2024 17:3522.6°C22.7°C22.5°C47.1%1026.0hPa0.0mm1.4km/hNW3.2km/h295.3W/m²301W/m²
11.04.2024 17:4022.6°C22.7°C22.4°C46.7%1026.0hPa0.0mm1.4km/hSSE4.7km/h225.8W/m²287W/m²
11.04.2024 17:4522.4°C22.5°C22.3°C47.3%1026.0hPa0.0mm1.4km/hSE4.7km/h242.5W/m²267W/m²
11.04.2024 17:5022.6°C22.6°C22.6°C47.3%1026.0hPa0.0mm1.4km/hSE3.2km/h252.8W/m²258W/m²
11.04.2024 17:5522.6°C22.7°C22.5°C47.6%1026.1hPa0.0mm1.4km/hSSE3.2km/h238.5W/m²244W/m²
11.04.2024 18:0022.6°C22.7°C22.6°C47.9%1026.0hPa0.0mm1.4km/hESE3.2km/h225.5W/m²230W/m²
11.04.2024 18:0522.6°C22.7°C22.6°C50.2%1026.0hPa0.0mm1.4km/hSE4.7km/h210.8W/m²220W/m²
11.04.2024 18:1022.5°C22.6°C22.3°C52.0%1026.0hPa0.0mm1.4km/hS3.2km/h194.7W/m²202W/m²
11.04.2024 18:1522.2°C22.4°C22.1°C51.8%1025.9hPa0.0mm1.4km/hSSW6.5km/h176.0W/m²185W/m²
11.04.2024 18:2022.0°C22.1°C21.8°C52.7%1026.0hPa0.0mm1.4km/hSSW6.5km/h156.3W/m²163W/m²
11.04.2024 18:2521.6°C21.8°C21.4°C53.2%1025.9hPa0.0mm2.2km/hSSW7.9km/h140.2W/m²146W/m²
11.04.2024 18:3021.3°C21.5°C21.2°C54.2%1025.9hPa0.0mm3.2km/hSSW6.5km/h126.5W/m²132W/m²
11.04.2024 18:3521.0°C21.2°C20.8°C55.2%1025.9hPa0.0mm3.2km/hS7.9km/h112.5W/m²118W/m²
11.04.2024 18:4020.7°C20.8°C20.5°C56.8%1026.0hPa0.0mm4.7km/hS9.7km/h102.3W/m²105W/m²
11.04.2024 18:4520.3°C20.4°C20.2°C58.0%1026.0hPa0.0mm4.7km/hS7.9km/h90.8W/m²97W/m²
11.04.2024 18:5020.2°C20.2°C20.1°C59.0%1026.1hPa0.0mm3.3km/hS7.9km/h78.6W/m²83W/m²
11.04.2024 18:5520.0°C20.1°C19.9°C59.0%1026.1hPa0.0mm3.2km/hS7.9km/h66.5W/m²72W/m²
11.04.2024 19:0019.8°C19.9°C19.8°C60.1%1026.0hPa0.0mm3.2km/hS4.7km/h46.4W/m²56W/m²
11.04.2024 19:0519.6°C19.8°C19.5°C60.6%1026.1hPa0.0mm2.9km/hS6.5km/h37.0W/m²39W/m²
11.04.2024 19:1019.4°C19.5°C19.3°C61.2%1026.1hPa0.0mm1.5km/hS6.5km/h33.0W/m²35W/m²
11.04.2024 19:1519.1°C19.2°C18.9°C62.4%1026.1hPa0.0mm1.8km/hSSE3.2km/h29.3W/m²32W/m²
11.04.2024 19:2018.8°C18.9°C18.7°C63.5%1026.2hPa0.0mm1.4km/hSSW4.7km/h25.0W/m²26W/m²
11.04.2024 19:2518.5°C18.7°C18.4°C64.1%1026.3hPa0.0mm1.8km/hSSW6.5km/h21.0W/m²23W/m²
11.04.2024 19:3018.2°C18.3°C18.2°C65.0%1026.4hPa0.0mm3.2km/hSSW7.9km/h17.5W/m²19W/m²
11.04.2024 19:3518.1°C18.2°C18.1°C65.1%1026.6hPa0.0mm3.8km/hS9.7km/h14.0W/m²16W/m²
11.04.2024 19:4018.0°C18.1°C17.8°C65.6%1026.6hPa0.0mm3.2km/hSSW6.5km/h11.3W/m²12W/m²
11.04.2024 19:4517.7°C17.8°C17.7°C66.3%1026.8hPa0.0mm3.2km/hS6.5km/h8.0W/m²9W/m²
11.04.2024 19:5017.6°C17.7°C17.6°C67.0%1026.8hPa0.0mm3.2km/hS6.5km/h4.5W/m²7W/m²
11.04.2024 19:5517.4°C17.5°C17.4°C67.0%1026.8hPa0.0mm3.2km/hSSW9.7km/h0.0W/m²0W/m²
11.04.2024 20:0017.3°C17.4°C17.3°C67.7%1026.9hPa0.0mm3.2km/hS7.9km/h0.0W/m²0W/m²
11.04.2024 20:0517.2°C17.3°C17.1°C68.0%1027.0hPa0.0mm3.8km/hS7.9km/h0.0W/m²0W/m²
11.04.2024 20:1017.1°C17.2°C17.0°C68.0%1027.1hPa0.0mm4.4km/hSSW11.2km/h0.0W/m²0W/m²
11.04.2024 20:1516.9°C17.0°C16.9°C68.6%1027.1hPa0.0mm4.7km/hS9.7km/h0.0W/m²0W/m²
11.04.2024 20:2016.8°C16.9°C16.7°C69.0%1027.2hPa0.0mm4.7km/hSSW9.7km/h0.0W/m²0W/m²
11.04.2024 20:2516.7°C16.7°C16.6°C69.0%1027.3hPa0.0mm4.7km/hSSW9.7km/h0.0W/m²0W/m²
11.04.2024 20:3016.6°C16.7°C16.6°C69.1%1027.3hPa0.0mm5.0km/hSSE9.7km/h0.0W/m²0W/m²
11.04.2024 20:3516.5°C16.6°C16.4°C70.0%1027.4hPa0.0mm4.7km/hSSW11.2km/h0.0W/m²0W/m²
11.04.2024 20:4016.4°C16.5°C16.4°C69.7%1027.5hPa0.0mm5.0km/hSSW9.7km/h0.0W/m²0W/m²
11.04.2024 20:4516.4°C16.5°C16.4°C69.0%1027.6hPa0.0mm6.5km/hSSW11.2km/h0.0W/m²0W/m²
11.04.2024 20:5016.4°C16.5°C16.4°C69.0%1027.6hPa0.0mm6.8km/hSSW13.0km/h0.0W/m²0W/m²
11.04.2024 20:5516.5°C16.5°C16.4°C68.7%1027.8hPa0.0mm7.6km/hSSW16.2km/h0.0W/m²0W/m²
11.04.2024 21:0016.4°C16.5°C16.3°C69.0%1027.8hPa0.0mm7.6km/hSSW11.2km/h0.0W/m²0W/m²
11.04.2024 21:0516.3°C16.4°C16.3°C69.0%1027.9hPa0.0mm5.8km/hS4.7km/h0.0W/m²0W/m²
11.04.2024 21:1016.3°C16.3°C16.2°C69.0%1028.0hPa0.0mm3.8km/hSSW7.9km/h0.0W/m²0W/m²
11.04.2024 21:1516.2°C16.3°C16.2°C69.8%1028.1hPa0.0mm3.2km/hSSW4.7km/h0.0W/m²0W/m²
11.04.2024 21:2016.2°C16.2°C16.1°C71.4%1028.1hPa0.0mm2.9km/hSSW3.2km/h0.0W/m²0W/m²
11.04.2024 21:2516.0°C16.1°C15.9°C72.0%1028.1hPa0.0mm1.2km/hSW1.4km/h0.0W/m²0W/m²
11.04.2024 21:3015.8°C15.9°C15.7°C73.0%1028.2hPa0.0mm0.0km/hSE3.2km/h0.0W/m²0W/m²
11.04.2024 21:3515.7°C15.7°C15.6°C73.3%1028.2hPa0.0mm0.0km/hS3.2km/h0.0W/m²0W/m²
11.04.2024 21:4015.4°C15.6°C15.3°C74.0%1028.3hPa0.0mm0.0km/hS3.2km/h0.0W/m²0W/m²
11.04.2024 21:4515.3°C15.3°C15.2°C75.0%1028.4hPa0.0mm0.6km/hSSW1.4km/h0.0W/m²0W/m²
11.04.2024 21:5015.1°C15.2°C14.9°C75.4%1028.4hPa0.0mm0.0km/hSSW1.4km/h0.0W/m²0W/m²
11.04.2024 21:5514.8°C14.9°C14.8°C75.0%1028.4hPa0.0mm0.2km/hSW4.7km/h0.0W/m²0W/m²
11.04.2024 22:0014.8°C14.8°C14.8°C75.2%1028.4hPa0.0mm1.4km/hWNW3.2km/h0.0W/m²0W/m²
11.04.2024 22:0514.7°C14.8°C14.6°C76.0%1028.5hPa0.0mm1.4km/hSSW4.7km/h0.0W/m²0W/m²
11.04.2024 22:1014.5°C14.6°C14.4°C76.9%1028.6hPa0.0mm1.4km/hSSW3.2km/h0.0W/m²0W/m²
11.04.2024 22:1514.4°C14.4°C14.3°C76.9%1028.6hPa0.0mm1.4km/hSSW7.9km/h0.0W/m²0W/m²
11.04.2024 22:2014.6°C14.7°C14.4°C75.5%1028.7hPa0.0mm2.8km/hSW4.7km/h0.0W/m²0W/m²
11.04.2024 22:2514.7°C14.7°C14.7°C75.0%1028.7hPa0.0mm2.2km/hSW3.2km/h0.0W/m²0W/m²
11.04.2024 22:3014.7°C14.7°C14.6°C75.2%1028.7hPa0.0mm1.4km/hW3.2km/h0.0W/m²0W/m²
11.04.2024 22:3514.6°C14.7°C14.4°C76.1%1028.8hPa0.0mm1.4km/hW3.2km/h0.0W/m²0W/m²
11.04.2024 22:4014.3°C14.4°C14.2°C77.2%1028.9hPa0.0mm1.4km/hSSE4.7km/h0.0W/m²0W/m²
11.04.2024 22:4514.2°C14.3°C14.2°C78.0%1029.0hPa0.0mm2.1km/hSSW6.5km/h0.0W/m²0W/m²
11.04.2024 22:5014.2°C14.3°C14.2°C78.0%1029.0hPa0.0mm2.2km/hW3.2km/h0.0W/m²0W/m²
11.04.2024 22:5514.0°C14.2°C13.9°C78.2%1029.1hPa0.0mm1.4km/hW4.7km/h0.0W/m²0W/m²
11.04.2024 23:0013.7°C13.8°C13.5°C79.5%1029.1hPa0.0mm2.5km/hSSW4.7km/h0.0W/m²0W/m²
11.04.2024 23:0513.3°C13.4°C13.2°C80.4%1029.1hPa0.0mm3.2km/hSSW4.7km/h0.0W/m²0W/m²
11.04.2024 23:1013.2°C13.2°C13.1°C81.2%1029.1hPa0.0mm3.2km/hSSE3.2km/h0.0W/m²0W/m²
11.04.2024 23:1513.1°C13.1°C13.1°C82.0%1029.2hPa0.0mm1.8km/hSSW3.2km/h0.0W/m²0W/m²
11.04.2024 23:2013.1°C13.1°C13.0°C82.0%1029.2hPa0.0mm1.4km/hSW4.7km/h0.0W/m²0W/m²
11.04.2024 23:2513.1°C13.1°C13.0°C82.0%1029.2hPa0.0mm1.4km/hSW3.2km/h0.0W/m²0W/m²
11.04.2024 23:3013.1°C13.1°C13.0°C82.0%1029.3hPa0.0mm1.4km/hW1.4km/h0.0W/m²0W/m²
11.04.2024 23:3513.1°C13.1°C13.0°C82.0%1029.4hPa0.0mm1.4km/hW3.2km/h0.0W/m²0W/m²
11.04.2024 23:4013.1°C13.1°C13.0°C82.0%1029.3hPa0.0mm1.4km/hW3.2km/h0.0W/m²0W/m²
11.04.2024 23:4512.9°C13.0°C12.9°C82.0%1029.4hPa0.0mm1.4km/hSSW3.2km/h0.0W/m²0W/m²
11.04.2024 23:5012.9°C12.9°C12.9°C82.0%1029.5hPa0.0mm1.4km/hW3.2km/h0.0W/m²0W/m²
11.04.2024 23:5512.9°C12.9°C12.8°C82.0%1029.5hPa0.0mm1.4km/hW3.2km/h0.0W/m²0W/m²
12.04.2024 00:0012.8°C12.8°C12.7°C82.0%1029.7hPa0.0mm2.8km/hWSW4.7km/h0.0W/m²0W/m²
12.04.2024 00:0512.6°C12.7°C12.5°C82.4%1029.7hPa0.0mm2.8km/hSSW4.7km/h0.0W/m²0W/m²
12.04.2024 00:1012.4°C12.5°C12.4°C83.0%1029.7hPa0.0mm1.4km/hWSW3.2km/h0.0W/m²0W/m²
12.04.2024 00:1512.3°C12.4°C12.3°C83.1%1029.7hPa0.0mm0.8km/hWSW3.2km/h0.0W/m²0W/m²
12.04.2024 00:2012.3°C12.3°C12.3°C84.0%1029.7hPa0.0mm0.8km/hWSW4.7km/h0.0W/m²0W/m²
12.04.2024 00:2512.3°C12.3°C12.2°C84.0%1029.7hPa0.0mm1.4km/hW3.2km/h0.0W/m²0W/m²
12.04.2024 00:3012.2°C12.2°C12.1°C84.0%1029.7hPa0.0mm1.4km/hSSW3.2km/h0.0W/m²0W/m²
12.04.2024 00:3512.1°C12.2°C12.1°C84.0%1029.8hPa0.0mm0.8km/hSSW1.4km/h0.0W/m²0W/m²
12.04.2024 00:4012.1°C12.1°C12.1°C84.5%1029.8hPa0.0mm0.0km/hSSW3.2km/h0.0W/m²0W/m²
12.04.2024 00:4512.1°C12.1°C12.0°C84.4%1029.9hPa0.0mm0.5km/hSW3.2km/h0.0W/m²0W/m²
12.04.2024 00:5012.0°C12.1°C12.0°C85.0%1030.0hPa0.0mm1.2km/hSW3.2km/h0.0W/m²0W/m²
12.04.2024 00:5512.0°C12.0°C11.9°C85.0%1030.0hPa0.0mm1.4km/hWSW3.2km/h0.0W/m²0W/m²
12.04.2024 01:0011.9°C11.9°C11.8°C85.0%1030.0hPa0.0mm1.4km/hSSW4.7km/h0.0W/m²0W/m²
12.04.2024 01:0511.8°C11.8°C11.8°C85.0%1030.0hPa0.0mm2.9km/hSW4.7km/h0.0W/m²0W/m²
12.04.2024 01:1011.8°C11.8°C11.8°C85.0%1030.1hPa0.0mm1.7km/hW4.7km/h0.0W/m²0W/m²
12.04.2024 01:1511.8°C11.9°C11.8°C85.0%1030.1hPa0.0mm1.4km/hWSW4.7km/h0.0W/m²0W/m²
12.04.2024 01:2011.8°C11.9°C11.8°C85.0%1030.0hPa0.0mm3.2km/hWSW6.5km/h0.0W/m²0W/m²
12.04.2024 01:2511.8°C11.8°C11.7°C85.0%1030.1hPa0.0mm3.2km/hW4.7km/h0.0W/m²0W/m²
12.04.2024 01:3011.6°C11.7°C11.5°C85.0%1030.1hPa0.0mm3.2km/hW4.7km/h0.0W/m²0W/m²
12.04.2024 01:3511.4°C11.5°C11.4°C85.0%1030.1hPa0.0mm3.2km/hW6.5km/h0.0W/m²0W/m²
12.04.2024 01:4011.3°C11.4°C11.3°C85.6%1030.1hPa0.0mm3.2km/hSSW4.7km/h0.0W/m²0W/m²
12.04.2024 01:4511.3°C11.3°C11.3°C86.0%1030.1hPa0.0mm3.2km/hW6.5km/h0.0W/m²0W/m²
12.04.2024 01:5011.4°C11.5°C11.3°C86.1%1030.1hPa0.0mm3.2km/hW4.7km/h0.0W/m²0W/m²
12.04.2024 01:5511.6°C11.6°C11.5°C86.0%1030.0hPa0.0mm2.9km/hWSW3.2km/h0.0W/m²0W/m²
12.04.2024 02:0011.6°C11.6°C11.6°C86.0%1030.0hPa0.0mm1.4km/hWSW4.7km/h0.0W/m²0W/m²
12.04.2024 02:0511.7°C11.7°C11.6°C85.6%1030.0hPa0.0mm1.4km/hSW4.7km/h0.0W/m²0W/m²
12.04.2024 02:1011.7°C11.7°C11.6°C85.0%1030.0hPa0.0mm1.4km/hSW1.4km/h0.0W/m²0W/m²
12.04.2024 02:1511.6°C11.7°C11.6°C85.0%1030.0hPa0.0mm1.4km/hWSW3.2km/h0.0W/m²0W/m²
12.04.2024 02:2011.6°C11.6°C11.5°C85.0%1030.0hPa0.0mm1.4km/hW3.2km/h0.0W/m²0W/m²
12.04.2024 02:2511.4°C11.5°C11.4°C85.0%1030.0hPa0.0mm1.4km/hW3.2km/h0.0W/m²0W/m²
12.04.2024 02:3011.3°C11.4°C11.2°C85.0%1029.9hPa0.0mm1.4km/hWSW3.2km/h0.0W/m²0W/m²
12.04.2024 02:3511.2°C11.2°C11.1°C85.0%1029.9hPa0.0mm1.4km/hWSW3.2km/h0.0W/m²0W/m²
12.04.2024 02:4011.0°C11.1°C10.9°C85.6%1029.8hPa0.0mm1.4km/hWSW1.4km/h0.0W/m²0W/m²
12.04.2024 02:4510.9°C11.0°C10.9°C86.0%1029.9hPa0.0mm0.3km/hWSW3.2km/h0.0W/m²0W/m²
12.04.2024 02:5010.8°C10.9°C10.8°C86.0%1029.9hPa0.0mm0.9km/hWSW3.2km/h0.0W/m²0W/m²
12.04.2024 02:5510.8°C10.8°C10.7°C86.0%1029.9hPa0.0mm1.4km/hSW4.7km/h0.0W/m²0W/m²
12.04.2024 03:0010.7°C10.7°C10.7°C86.8%1029.9hPa